This is the latest recevied weather packets stored in our database for station/object KB2AHZ. If no packets are shown the sender has not sent any weather packets the latest 10 day(s).
| Time | Temp. | Humidity | Pressure | Rain* | Wind** | Luminosity | Snow |
|---|---|---|---|---|---|---|---|
| 1777766860 | 11.11° C | 77% | 1013 hPa | 0 mm | - | 1 W/m² | - |
| 1777766557 | 11.67° C | 78% | 1012.8 hPa | 0 mm | - | 3 W/m² | - |
| 1777766253 | 11.67° C | 76% | 1013 hPa | 0 mm | - | 5 W/m² | - |
| 1777765952 | 11.67° C | 75% | 1012.9 hPa | 0 mm | - | 8 W/m² | - |
| 1777765647 | 11.67° C | 75% | 1012.6 hPa | 0 mm | - | 13 W/m² | - |
| 1777765345 | 12.22° C | 75% | 1012.8 hPa | 0 mm | - | 17 W/m² | - |
| 1777765041 | 12.22° C | 73% | 1012.7 hPa | 0 mm | - | 19 W/m² | - |
| 1777764738 | 12.22° C | 75% | 1012.7 hPa | 0 mm | - | 18 W/m² | - |
| 1777764433 | 12.78° C | 76% | 1012.4 hPa | 0 mm | - | 17 W/m² | - |
| 1777764131 | 12.78° C | 72% | 1012.5 hPa | 0 mm | - | 20 W/m² | - |
| 1777763827 | 12.78° C | 72% | 1012.5 hPa | 0 mm | - | 27 W/m² | - |
| 1777763525 | 12.78° C | 70% | 1012 hPa | 0 mm | - | 30 W/m² | - |
| 1777763224 | 12.78° C | 68% | 1012.3 hPa | 0 mm | - | 37 W/m² | - |
| 1777762922 | 13.33° C | 68% | 1012.3 hPa | 0 mm | - | 40 W/m² | - |
| 1777762617 | 13.33° C | 68% | 1012.3 hPa | 0 mm | - | 57 W/m² | - |
| 1777762315 | 13.33° C | 67% | 1012.4 hPa | 0 mm | - | 86 W/m² | - |
| 1777762010 | 13.89° C | 67% | 1012.3 hPa | 0 mm | - | 82 W/m² | - |
| 1777761708 | 13.89° C | 62% | 1012.2 hPa | 0 mm | - | 86 W/m² | - |
| 1777761405 | 13.89° C | 64% | 1012.4 hPa | 0 mm | - | 89 W/m² | - |
| 1777761103 | 13.89° C | 63% | 1012.3 hPa | 0 mm | - | 87 W/m² | - |
| 1777760801 | 14.44° C | 62% | 1012.2 hPa | 0 mm | - | 98 W/m² | - |
| 1777760497 | 13.89° C | 60% | 1012.2 hPa | 0 mm | - | 130 W/m² | - |
| 1777760192 | 14.44° C | 61% | 1012.2 hPa | 0 mm | - | 178 W/m² | - |
| 1777759890 | 15° C | 59% | 1012.1 hPa | 0 mm | - | 176 W/m² | - |
| 1777759586 | 14.44° C | 63% | 1012 hPa | 0 mm | - | 241 W/m² | - |
* Rain latest hour (hover to see other rain measurements)
** Current wind speed in m/s (hover to see current wind gust speed)